{"data":{"norad_id":58187,"epoch":"2026-05-25T04:28:03.984672Z","epoch_age_seconds":62104,"freshness":"FRESH","line1":"1 58187U 23167N   26145.18615723  .00002857  00000+0  11331-3 0  9992","line2":"2 58187  43.0061  71.4319 0000926 273.3967  86.6778 15.27576277142686","mean_motion":15.27576277,"eccentricity":9.26e-5,"inclination_deg":43.0061,"raan_deg":71.4319,"arg_perigee_deg":273.3967,"mean_anomaly_deg":86.6778,"bstar":0.00011331,"rev_number":14268,"period_min":94.266978460022,"perigee_km":482.42489719884,"apogee_km":483.69559092844,"semimajor_km":6861.1972440636,"source":"CELESTRAK","updated_at":"2026-05-25T13:38:18.571260Z"}}